Time,TemperatureF,DewpointF,PressureIn,WindDirection,WindDirectionDegrees,WindSpeedMPH,WindSpeedGustMPH,Humidity,HourlyPrecipIn,Conditions,Clouds,dailyrainin,SoftwareType,DateUTC
2013-07-30 00:00:00,61.0,52.7,30.08,WNW,293,0.0,1.0,74,0.00,,,0.00,meteohub,2013-07-30 04:00:00,
2013-07-30 00:01:00,61.0,52.7,30.08,WNW,293,0.0,1.0,74,0.00,,,0.00,meteohub,2013-07-30 04:01:00,
2013-07-30 00:02:00,61.0,52.7,30.08,WNW,293,0.0,1.0,74,0.00,,,0.00,meteohub,2013-07-30 04:02:00,
2013-07-30 00:07:00,61.0,53.4,30.08,WNW,293,0.0,1.0,76,0.00,,,0.00,meteohub,2013-07-30 04:07:00,
2013-07-30 00:12:00,61.0,53.8,30.08,WNW,293,0.0,1.0,77,0.00,,,0.00,meteohub,2013-07-30 04:12:00,
2013-07-30 00:17:00,61.0,54.5,30.08,WNW,293,0.0,0.0,79,0.00,,,0.00,meteohub,2013-07-30 04:17:00,
2013-07-30 00:22:00,61.0,55.0,30.08,WNW,293,0.0,0.0,81,0.00,,,0.00,meteohub,2013-07-30 04:22:00,
2013-07-30 00:27:00,60.8,54.9,30.08,WNW,293,0.0,0.0,81,0.00,,,0.00,meteohub,2013-07-30 04:27:00,
2013-07-30 00:32:00,60.6,55.4,30.08,WNW,293,0.0,0.0,83,0.00,,,0.00,meteohub,2013-07-30 04:32:00,
2013-07-30 00:37:00,60.6,55.8,30.08,WNW,293,1.0,0.0,84,0.00,,,0.00,meteohub,2013-07-30 04:37:00,
2013-07-30 00:42:00,60.6,55.8,30.08,WNW,293,0.0,2.0,84,0.00,,,0.00,meteohub,2013-07-30 04:42:00,
2013-07-30 00:47:00,61.0,55.8,30.08,WNW,293,0.0,2.0,83,0.00,,,0.00,meteohub,2013-07-30 04:47:00,
2013-07-30 00:52:00,61.0,55.8,30.08,WNW,293,0.0,2.0,83,0.00,,,0.00,meteohub,2013-07-30 04:52:00,
2013-07-30 00:57:00,61.0,55.8,30.08,WNW,293,0.0,1.0,83,0.00,,,0.00,meteohub,2013-07-30 04:57:00,
2013-07-30 01:02:00,61.0,55.4,30.08,WNW,293,0.0,1.0,82,0.00,,,0.00,meteohub,2013-07-30 05:02:00,
2013-07-30 01:07:00,61.0,55.8,30.08,WNW,293,0.0,1.0,83,0.00,,,0.00,meteohub,2013-07-30 05:07:00,
2013-07-30 01:12:00,61.0,56.1,30.08,WNW,293,0.0,1.0,84,0.00,,,0.00,meteohub,2013-07-30 05:12:00,
2013-07-30 01:17:00,61.0,55.8,30.08,WNW,293,0.0,1.0,83,0.00,,,0.00,meteohub,2013-07-30 05:17:00,
2013-07-30 01:22:00,60.8,55.6,30.08,WNW,293,0.0,1.0,83,0.00,,,0.00,meteohub,2013-07-30 05:22:00,
2013-07-30 01:28:00,60.8,55.6,30.07,WNW,293,0.0,0.0,83,0.00,,,0.00,meteohub,2013-07-30 05:28:00,
2013-07-30 01:33:00,60.6,55.4,30.07,WNW,293,0.0,0.0,83,0.00,,,0.00,meteohub,2013-07-30 05:33:00,
2013-07-30 01:38:00,60.6,55.8,30.07,WNW,293,0.0,1.0,84,0.00,,,0.00,meteohub,2013-07-30 05:38:00,
2013-07-30 01:43:00,60.6,56.1,30.07,WNW,293,1.0,1.0,85,0.00,,,0.00,meteohub,2013-07-30 05:43:00,
2013-07-30 01:48:00,60.6,56.1,30.07,WNW,293,1.0,1.0,85,0.00,,,0.00,meteohub,2013-07-30 05:48:00,
2013-07-30 01:53:00,60.8,56.3,30.07,WNW,293,0.0,1.0,85,0.00,,,0.00,meteohub,2013-07-30 05:53:00,
2013-07-30 01:58:00,60.8,56.3,30.07,WNW,293,1.0,1.0,85,0.00,,,0.00,meteohub,2013-07-30 05:58:00,
2013-07-30 02:03:00,60.6,55.8,30.07,WNW,293,0.0,2.0,84,0.00,,,0.00,meteohub,2013-07-30 06:03:00,
2013-07-30 02:08:00,60.6,55.8,30.06,WNW,293,0.0,2.0,84,0.00,,,0.00,meteohub,2013-07-30 06:08:00,
2013-07-30 02:13:00,60.6,55.8,30.06,WNW,293,1.0,2.0,84,0.00,,,0.00,meteohub,2013-07-30 06:13:00,
2013-07-30 02:18:00,60.6,55.8,30.06,WNW,293,0.0,1.0,84,0.00,,,0.00,meteohub,2013-07-30 06:18:00,
2013-07-30 02:23:00,60.6,55.4,30.06,WNW,293,0.0,1.0,83,0.00,,,0.00,meteohub,2013-07-30 06:23:00,
2013-07-30 02:28:00,60.4,55.2,30.06,WNW,293,0.0,1.0,83,0.00,,,0.00,meteohub,2013-07-30 06:28:00,
2013-07-30 02:33:00,60.4,55.6,30.06,WNW,293,0.0,0.0,84,0.00,,,0.00,meteohub,2013-07-30 06:33:00,
2013-07-30 02:38:00,60.3,55.4,30.06,WNW,293,1.0,0.0,84,0.00,,,0.00,meteohub,2013-07-30 06:38:00,
2013-07-30 02:43:00,60.3,55.8,30.06,WNW,293,1.0,1.0,85,0.00,,,0.00,meteohub,2013-07-30 06:43:00,
2013-07-30 02:48:00,60.3,55.4,30.06,WNW,293,0.0,1.0,84,0.00,,,0.00,meteohub,2013-07-30 06:48:00,
2013-07-30 02:53:00,60.1,55.6,30.06,WNW,293,0.0,2.0,85,0.00,,,0.00,meteohub,2013-07-30 06:53:00,
2013-07-30 02:58:00,60.1,55.6,30.06,WNW,293,0.0,2.0,85,0.00,,,0.00,meteohub,2013-07-30 06:58:00,
2013-07-30 03:03:00,59.9,55.8,30.06,WNW,293,0.0,2.0,86,0.00,,,0.00,meteohub,2013-07-30 07:03:00,
2013-07-30 03:08:00,59.7,55.6,30.06,WNW,293,0.0,1.0,86,0.00,,,0.00,meteohub,2013-07-30 07:08:00,
2013-07-30 03:13:00,59.5,55.4,30.06,WNW,293,0.0,0.0,86,0.00,,,0.00,meteohub,2013-07-30 07:13:00,
2013-07-30 03:18:00,59.5,55.4,30.06,WNW,293,0.0,0.0,86,0.00,,,0.00,meteohub,2013-07-30 07:18:00,
2013-07-30 03:23:00,59.5,55.6,30.06,WNW,293,0.0,1.0,87,0.00,,,0.00,meteohub,2013-07-30 07:23:00,
2013-07-30 03:28:00,59.5,55.6,30.06,WNW,293,0.0,1.0,87,0.00,,,0.00,meteohub,2013-07-30 07:28:00,
2013-07-30 03:33:00,59.5,55.9,30.06,WNW,293,0.0,1.0,88,0.00,,,0.00,meteohub,2013-07-30 07:33:00,
2013-07-30 03:38:00,59.7,56.5,30.06,WNW,293,0.0,1.0,89,0.00,,,0.00,meteohub,2013-07-30 07:38:00,
2013-07-30 03:43:00,59.7,56.1,30.06,WNW,293,0.0,1.0,88,0.00,,,0.00,meteohub,2013-07-30 07:43:00,
2013-07-30 03:48:00,59.7,56.1,30.06,WNW,293,0.0,1.0,88,0.00,,,0.00,meteohub,2013-07-30 07:48:00,
2013-07-30 03:53:00,59.9,56.7,30.06,WNW,293,1.0,0.0,89,0.00,,,0.00,meteohub,2013-07-30 07:53:00,
2013-07-30 03:58:00,60.1,56.8,30.06,WNW,293,0.0,1.0,89,0.00,,,0.00,meteohub,2013-07-30 07:58:00,
2013-07-30 04:03:00,60.3,57.0,30.06,WNW,293,0.0,1.0,89,0.00,,,0.00,meteohub,2013-07-30 08:03:00,
2013-07-30 04:08:00,60.3,57.0,30.06,WNW,293,0.0,1.0,89,0.00,,,0.00,meteohub,2013-07-30 08:08:00,
2013-07-30 04:13:00,60.3,57.4,30.06,WNW,293,0.0,0.0,90,0.00,,,0.00,meteohub,2013-07-30 08:13:00,
2013-07-30 04:18:00,60.3,57.4,30.06,WNW,293,0.0,1.0,90,0.00,,,0.00,meteohub,2013-07-30 08:18:00,
2013-07-30 04:23:00,60.4,58.1,30.06,WNW,293,1.0,1.0,92,0.00,,,0.00,meteohub,2013-07-30 08:23:00,
2013-07-30 04:28:00,60.4,57.2,30.06,WNW,293,0.0,2.0,89,0.00,,,0.00,meteohub,2013-07-30 08:28:00,
2013-07-30 04:33:00,60.6,57.4,30.06,WNW,293,0.0,2.0,89,0.00,,,0.00,meteohub,2013-07-30 08:33:00,
2013-07-30 04:38:00,60.6,57.0,30.06,WNW,293,1.0,2.0,88,0.00,,,0.00,meteohub,2013-07-30 08:38:00,
2013-07-30 04:43:00,60.6,57.0,30.06,WNW,293,0.0,1.0,88,0.00,,,0.00,meteohub,2013-07-30 08:43:00,
2013-07-30 04:48:00,60.6,57.0,30.06,WNW,293,0.0,1.0,88,0.00,,,0.00,meteohub,2013-07-30 08:48:00,
2013-07-30 04:53:00,60.6,57.0,30.06,WNW,295,1.0,2.0,88,0.00,,,0.00,meteohub,2013-07-30 08:53:00,
2013-07-30 04:59:00,60.6,57.4,30.06,WNW,295,0.0,2.0,89,0.00,,,0.00,meteohub,2013-07-30 08:59:00,
2013-07-30 05:04:00,60.6,57.7,30.07,WNW,295,0.0,2.0,90,0.00,,,0.00,meteohub,2013-07-30 09:04:00,
2013-07-30 05:09:00,60.6,57.7,30.07,WNW,295,0.0,2.0,90,0.00,,,0.00,meteohub,2013-07-30 09:09:00,
2013-07-30 05:14:00,60.4,57.2,30.07,WNW,295,0.0,2.0,89,0.00,,,0.00,meteohub,2013-07-30 09:14:00,
2013-07-30 05:19:00,60.4,57.6,30.06,WNW,295,0.0,0.0,90,0.00,,,0.00,meteohub,2013-07-30 09:19:00,
2013-07-30 05:24:00,60.4,57.6,30.07,WNW,295,0.0,0.0,90,0.00,,,0.00,meteohub,2013-07-30 09:24:00,
2013-07-30 05:29:00,60.4,57.6,30.07,WNW,295,0.0,0.0,90,0.00,,,0.00,meteohub,2013-07-30 09:29:00,
2013-07-30 05:34:00,60.4,57.7,30.07,WNW,295,0.0,0.0,91,0.00,,,0.00,meteohub,2013-07-30 09:34:00,
2013-07-30 05:39:00,60.4,57.7,30.07,WNW,295,0.0,0.0,91,0.00,,,0.00,meteohub,2013-07-30 09:39:00,
2013-07-30 05:44:00,60.3,57.4,30.07,WNW,295,0.0,0.0,90,0.00,,,0.00,meteohub,2013-07-30 09:44:00,
2013-07-30 05:49:00,60.3,57.6,30.07,WNW,295,0.0,0.0,91,0.00,,,0.00,meteohub,2013-07-30 09:49:00,
2013-07-30 05:54:00,60.3,57.4,30.07,WNW,295,0.0,0.0,90,0.00,,,0.00,meteohub,2013-07-30 09:54:00,
2013-07-30 05:59:00,60.4,57.6,30.07,WNW,295,0.0,0.0,90,0.00,,,0.00,meteohub,2013-07-30 09:59:00,
2013-07-30 06:04:00,60.4,57.7,30.07,WNW,295,0.0,0.0,91,0.00,,,0.00,meteohub,2013-07-30 10:04:00,
2013-07-30 06:09:00,60.4,58.1,30.08,WNW,295,0.0,0.0,92,0.00,,,0.00,meteohub,2013-07-30 10:09:00,
2013-07-30 06:14:00,60.3,57.9,30.08,WNW,295,0.0,0.0,92,0.00,,,0.00,meteohub,2013-07-30 10:14:00,
2013-07-30 06:19:00,60.3,57.9,30.08,WNW,295,0.0,0.0,92,0.00,,,0.00,meteohub,2013-07-30 10:19:00,
2013-07-30 06:24:00,60.1,57.4,30.08,WNW,295,0.0,0.0,91,0.00,,,0.00,meteohub,2013-07-30 10:24:00,
2013-07-30 06:29:00,60.1,57.7,30.08,WNW,295,0.0,0.0,92,0.00,,,0.00,meteohub,2013-07-30 10:29:00,
2013-07-30 06:34:00,59.9,57.6,30.08,WNW,295,0.0,0.0,92,0.00,,,0.00,meteohub,2013-07-30 10:34:00,
2013-07-30 06:39:00,59.9,57.6,30.08,WNW,295,0.0,0.0,92,0.00,,,0.00,meteohub,2013-07-30 10:39:00,
2013-07-30 06:44:00,60.1,57.7,30.08,WNW,295,0.0,0.0,92,0.00,,,0.00,meteohub,2013-07-30 10:44:00,
2013-07-30 06:49:00,59.9,57.6,30.08,WNW,295,0.0,0.0,92,0.00,,,0.00,meteohub,2013-07-30 10:49:00,
2013-07-30 06:54:00,59.9,57.6,30.08,WNW,295,0.0,0.0,92,0.00,,,0.00,meteohub,2013-07-30 10:54:00,
2013-07-30 06:59:00,59.7,57.4,30.09,WNW,295,0.0,0.0,92,0.00,,,0.00,meteohub,2013-07-30 10:59:00,
2013-07-30 07:04:00,59.9,57.6,30.08,WNW,295,0.0,0.0,92,0.00,,,0.00,meteohub,2013-07-30 11:04:00,
2013-07-30 07:09:00,59.9,57.9,30.09,WNW,295,0.0,0.0,93,0.00,,,0.00,meteohub,2013-07-30 11:09:00,
2013-07-30 07:14:00,59.7,57.7,30.09,WNW,295,0.0,0.0,93,0.00,,,0.00,meteohub,2013-07-30 11:14:00,
2013-07-30 07:19:00,59.7,57.7,30.09,WNW,295,0.0,0.0,93,0.00,,,0.00,meteohub,2013-07-30 11:19:00,
2013-07-30 07:24:00,59.7,57.7,30.09,WNW,295,0.0,0.0,93,0.00,,,0.00,meteohub,2013-07-30 11:24:00,
2013-07-30 07:29:00,59.7,57.7,30.09,WNW,295,0.0,0.0,93,0.00,,,0.00,meteohub,2013-07-30 11:29:00,
2013-07-30 07:34:00,59.7,57.7,30.09,WNW,295,0.0,0.0,93,0.00,,,0.00,meteohub,2013-07-30 11:34:00,
2013-07-30 07:39:00,59.7,57.7,30.09,WNW,295,0.0,0.0,93,0.00,,,0.00,meteohub,2013-07-30 11:39:00,
2013-07-30 07:44:00,59.9,58.1,30.09,WNW,295,0.0,0.0,94,0.00,,,0.00,meteohub,2013-07-30 11:44:00,
2013-07-30 07:49:00,60.1,58.3,30.09,WNW,295,0.0,0.0,94,0.00,,,0.00,meteohub,2013-07-30 11:49:00,
2013-07-30 07:54:00,60.6,58.3,30.09,WNW,295,0.0,0.0,92,0.00,,,0.00,meteohub,2013-07-30 11:54:00,
2013-07-30 07:59:00,61.2,59.2,30.09,WNW,295,0.0,0.0,93,0.00,,,0.00,meteohub,2013-07-30 11:59:00,
2013-07-30 08:04:00,61.3,59.0,30.10,WNW,295,0.0,0.0,92,0.00,,,0.00,meteohub,2013-07-30 12:04:00,
2013-07-30 08:09:00,61.7,58.8,30.10,WNW,295,0.0,0.0,90,0.00,,,0.00,meteohub,2013-07-30 12:09:00,
2013-07-30 08:14:00,61.9,59.0,30.10,WNW,297,0.0,0.0,90,0.00,,,0.00,meteohub,2013-07-30 12:14:00,
2013-07-30 08:19:00,62.1,58.1,30.10,NE,54,0.0,0.0,87,0.00,,,0.00,meteohub,2013-07-30 12:19:00,
2013-07-30 08:24:00,62.2,57.9,30.10,East,89,1.0,1.0,86,0.00,,,0.00,meteohub,2013-07-30 12:24:00,
2013-07-30 08:29:00,62.6,57.7,30.10,SE,125,1.0,3.0,84,0.00,,,0.00,meteohub,2013-07-30 12:29:00,
2013-07-30 08:34:00,63.0,58.1,30.10,ESE,108,1.0,3.0,84,0.00,,,0.00,meteohub,2013-07-30 12:34:00,
2013-07-30 08:39:00,63.1,57.9,30.10,SE,125,1.0,3.0,83,0.00,,,0.00,meteohub,2013-07-30 12:39:00,
2013-07-30 08:44:00,63.3,58.1,30.10,ESE,110,2.0,4.0,83,0.00,,,0.00,meteohub,2013-07-30 12:44:00,
2013-07-30 08:49:00,63.5,58.6,30.11,SE,134,1.0,4.0,84,0.00,,,0.00,meteohub,2013-07-30 12:49:00,
2013-07-30 08:54:00,63.7,58.5,30.11,East,100,2.0,4.0,83,0.00,,,0.00,meteohub,2013-07-30 12:54:00,
2013-07-30 08:59:00,63.9,58.6,30.11,East,88,1.0,4.0,83,0.00,,,0.00,meteohub,2013-07-30 12:59:00,
2013-07-30 09:05:00,64.0,58.8,30.11,ESE,106,1.0,3.0,83,0.00,,,0.00,meteohub,2013-07-30 13:05:00,
2013-07-30 09:10:00,64.4,59.2,30.11,SE,125,0.0,3.0,83,0.00,,,0.00,meteohub,2013-07-30 13:10:00,
2013-07-30 09:15:00,64.8,59.2,30.12,SE,125,0.0,3.0,82,0.00,,,0.00,meteohub,2013-07-30 13:15:00,
2013-07-30 09:20:00,65.1,59.5,30.12,SE,125,1.0,3.0,82,0.00,,,0.00,meteohub,2013-07-30 13:20:00,
2013-07-30 09:25:00,65.3,59.0,30.11,ESE,106,2.0,3.0,80,0.00,,,0.00,meteohub,2013-07-30 13:25:00,
2013-07-30 09:30:00,65.7,59.4,30.11,ESE,107,2.0,3.0,80,0.00,,,0.00,meteohub,2013-07-30 13:30:00,
2013-07-30 09:35:00,65.7,58.6,30.12,East,97,2.0,3.0,78,0.00,,,0.00,meteohub,2013-07-30 13:35:00,
2013-07-30 09:40:00,66.0,59.0,30.11,ENE,72,0.0,3.0,78,0.00,,,0.00,meteohub,2013-07-30 13:40:00,
2013-07-30 09:45:00,66.4,58.6,30.11,WNW,282,1.0,3.0,76,0.00,,,0.00,meteohub,2013-07-30 13:45:00,
2013-07-30 09:50:00,66.7,58.6,30.11,SE,129,1.0,4.0,75,0.00,,,0.00,meteohub,2013-07-30 13:50:00,
2013-07-30 09:55:00,67.1,58.5,30.11,West,270,1.0,5.0,74,0.00,,,0.00,meteohub,2013-07-30 13:55:00,
2013-07-30 10:00:00,67.5,58.1,30.11,SE,131,1.0,5.0,72,0.00,,,0.00,meteohub,2013-07-30 14:00:00,
2013-07-30 10:05:00,68.2,58.5,30.11,NE,49,1.0,5.0,71,0.00,,,0.00,meteohub,2013-07-30 14:05:00,
2013-07-30 10:10:00,68.5,59.2,30.10,NW,306,0.0,5.0,72,0.00,,,0.00,meteohub,2013-07-30 14:10:00,
2013-07-30 10:15:00,68.5,58.3,30.10,WNW,295,2.0,4.0,70,0.00,,,0.00,meteohub,2013-07-30 14:15:00,
2013-07-30 10:20:00,68.4,55.8,30.10,West,278,5.0,5.0,64,0.00,,,0.00,meteohub,2013-07-30 14:20:00,
2013-07-30 10:25:00,68.2,55.6,30.10,West,262,4.0,4.0,64,0.00,,,0.00,meteohub,2013-07-30 14:25:00,
2013-07-30 10:30:00,68.0,55.4,30.10,WNW,289,5.0,9.0,64,0.00,,,0.00,meteohub,2013-07-30 14:30:00,
2013-07-30 10:35:00,68.0,55.8,30.10,West,280,4.0,7.0,65,0.00,,,0.00,meteohub,2013-07-30 14:35:00,
2013-07-30 10:40:00,68.0,56.7,30.10,WNW,283,4.0,7.0,67,0.00,,,0.00,meteohub,2013-07-30 14:40:00,
2013-07-30 10:45:00,68.2,58.5,30.10,West,280,0.0,7.0,71,0.00,,,0.00,meteohub,2013-07-30 14:45:00,
2013-07-30 10:50:00,68.2,55.9,30.10,WSW,252,1.0,7.0,65,0.00,,,0.00,meteohub,2013-07-30 14:50:00,
2013-07-30 10:52:00,68.2,56.8,30.10,SW,235,1.0,7.0,67,0.00,,,0.00,meteohub,2013-07-30 14:52:00,
2013-07-30 10:55:00,68.4,56.1,30.10,WNW,282,2.0,5.0,65,0.00,,,0.00,meteohub,2013-07-30 14:55:00,
2013-07-30 11:00:00,68.4,57.0,30.10,West,270,0.0,4.0,67,0.00,,,0.00,meteohub,2013-07-30 15:00:00,
2013-07-30 11:05:00,68.5,57.2,30.10,West,273,4.0,4.0,67,0.00,,,0.00,meteohub,2013-07-30 15:05:00,
2013-07-30 11:10:00,68.7,54.7,30.09,West,272,6.0,6.0,61,0.00,,,0.00,meteohub,2013-07-30 15:10:00,
2013-07-30 11:15:00,68.5,50.7,30.09,West,277,5.0,8.0,53,0.00,,,0.00,meteohub,2013-07-30 15:15:00,
2013-07-30 11:20:00,68.7,49.3,30.10,NW,309,7.0,8.0,50,0.00,,,0.00,meteohub,2013-07-30 15:20:00,
2013-07-30 11:25:00,69.1,50.2,30.10,WNW,290,2.0,9.0,51,0.00,,,0.00,meteohub,2013-07-30 15:25:00,
2013-07-30 11:30:00,69.3,49.8,30.10,WSW,256,2.0,9.0,50,0.00,,,0.00,meteohub,2013-07-30 15:30:00,
2013-07-30 11:35:00,69.4,49.5,30.10,West,262,5.0,10.0,49,0.00,,,0.00,meteohub,2013-07-30 15:35:00,
2013-07-30 11:40:00,69.6,50.2,30.10,West,279,1.0,10.0,50,0.00,,,0.00,meteohub,2013-07-30 15:40:00,
2013-07-30 11:45:00,70.2,55.6,30.10,WNW,287,1.0,10.0,60,0.00,,,0.00,meteohub,2013-07-30 15:45:00,
2013-07-30 11:50:00,70.9,54.3,30.10,West,281,4.0,7.0,56,0.00,,,0.00,meteohub,2013-07-30 15:50:00,
2013-07-30 11:55:00,71.1,53.1,30.10,WNW,284,1.0,7.0,53,0.00,,,0.00,meteohub,2013-07-30 15:55:00,
2013-07-30 12:00:00,71.4,52.9,30.10,West,275,4.0,6.0,52,0.00,,,0.00,meteohub,2013-07-30 16:00:00,
2013-07-30 12:05:00,71.4,51.3,30.10,West,281,1.0,7.0,49,0.00,,,0.00,meteohub,2013-07-30 16:05:00,
2013-07-30 12:10:00,71.6,54.5,30.10,SSE,147,0.0,9.0,55,0.00,,,0.00,meteohub,2013-07-30 16:10:00,
2013-07-30 12:15:00,71.8,51.6,30.10,West,277,4.0,9.0,49,0.00,,,0.00,meteohub,2013-07-30 16:15:00,
2013-07-30 12:20:00,71.2,49.5,30.10,WNW,283,5.0,10.0,46,0.00,,,0.00,meteohub,2013-07-30 16:20:00,
2013-07-30 12:25:00,71.2,50.5,30.10,West,281,4.0,11.0,48,0.00,,,0.00,meteohub,2013-07-30 16:25:00,
2013-07-30 12:31:00,71.4,51.8,30.10,West,269,4.0,11.0,50,0.00,,,0.00,meteohub,2013-07-30 16:31:00,
2013-07-30 12:36:00,71.8,52.2,30.10,West,276,1.0,9.0,50,0.00,,,0.00,meteohub,2013-07-30 16:36:00,
2013-07-30 12:41:00,72.1,51.4,30.10,West,272,2.0,9.0,48,0.00,,,0.00,meteohub,2013-07-30 16:41:00,
2013-07-30 12:46:00,72.7,51.3,30.10,West,268,4.0,6.0,47,0.00,,,0.00,meteohub,2013-07-30 16:46:00,
2013-07-30 12:51:00,73.0,53.2,30.09,West,259,2.0,8.0,50,0.00,,,0.00,meteohub,2013-07-30 16:51:00,
2013-07-30 12:56:00,73.2,50.5,30.09,West,270,0.0,8.0,45,0.00,,,0.00,meteohub,2013-07-30 16:56:00,
2013-07-30 13:01:00,73.6,51.4,30.09,West,279,4.0,7.0,46,0.00,,,0.00,meteohub,2013-07-30 17:01:00,
2013-07-30 13:06:00,73.6,53.8,30.09,West,277,4.0,8.0,50,0.00,,,0.00,meteohub,2013-07-30 17:06:00,
2013-07-30 13:11:00,73.6,55.4,30.09,West,281,4.0,11.0,53,0.00,,,0.00,meteohub,2013-07-30 17:11:00,
2013-07-30 13:16:00,73.8,58.5,30.09,SSW,208,2.0,11.0,59,0.00,,,0.00,meteohub,2013-07-30 17:16:00,
2013-07-30 13:21:00,74.1,55.4,30.09,WNW,290,1.0,11.0,52,0.00,,,0.00,meteohub,2013-07-30 17:21:00,
2013-07-30 13:26:00,74.3,55.0,30.09,West,272,2.0,7.0,51,0.00,,,0.00,meteohub,2013-07-30 17:26:00,
2013-07-30 13:31:00,74.5,56.7,30.09,SW,226,1.0,8.0,54,0.00,,,0.00,meteohub,2013-07-30 17:31:00,
2013-07-30 13:36:00,74.8,57.0,30.09,West,277,4.0,8.0,54,0.00,,,0.00,meteohub,2013-07-30 17:36:00,
2013-07-30 13:41:00,74.7,54.3,30.09,West,265,2.0,7.0,49,0.00,,,0.00,meteohub,2013-07-30 17:41:00,
2013-07-30 13:46:00,74.7,55.4,30.09,NE,54,1.0,8.0,51,0.00,,,0.00,meteohub,2013-07-30 17:46:00,
2013-07-30 13:51:00,75.0,56.1,30.09,ESE,115,1.0,8.0,52,0.00,,,0.00,meteohub,2013-07-30 17:51:00,
2013-07-30 13:56:00,75.2,54.7,30.09,West,279,1.0,5.0,49,0.00,,,0.00,meteohub,2013-07-30 17:56:00,
2013-07-30 14:01:00,74.8,55.0,30.09,WNW,291,5.0,6.0,50,0.00,,,0.00,meteohub,2013-07-30 18:01:00,
2013-07-30 14:06:00,74.8,57.0,30.09,WSW,254,4.0,8.0,54,0.00,,,0.00,meteohub,2013-07-30 18:06:00,
2013-07-30 14:11:00,74.7,54.3,30.09,West,264,0.0,8.0,49,0.00,,,0.00,meteohub,2013-07-30 18:11:00,
2013-07-30 14:16:00,74.8,56.1,30.08,SSE,158,2.0,8.0,52,0.00,,,0.00,meteohub,2013-07-30 18:16:00,
2013-07-30 14:21:00,75.0,56.1,30.08,SSE,152,0.0,8.0,52,0.00,,,0.00,meteohub,2013-07-30 18:21:00,
2013-07-30 14:26:00,75.4,57.6,30.08,WSW,253,5.0,6.0,54,0.00,,,0.00,meteohub,2013-07-30 18:26:00,
2013-07-30 14:31:00,75.2,58.5,30.08,SW,218,1.0,7.0,56,0.00,,,0.00,meteohub,2013-07-30 18:31:00,
2013-07-30 14:36:00,75.0,59.7,30.08,West,266,6.0,7.0,59,0.00,,,0.00,meteohub,2013-07-30 18:36:00,
2013-07-30 14:42:00,74.7,57.4,30.08,West,276,2.0,8.0,55,0.00,,,0.00,meteohub,2013-07-30 18:42:00,
2013-07-30 14:47:00,74.8,56.5,30.08,East,89,1.0,8.0,53,0.00,,,0.00,meteohub,2013-07-30 18:47:00,
2013-07-30 14:52:00,75.6,61.2,30.08,SSW,206,1.0,8.0,61,0.00,,,0.00,meteohub,2013-07-30 18:52:00,
2013-07-30 14:57:00,76.1,59.2,30.08,WSW,258,1.0,7.0,56,0.00,,,0.00,meteohub,2013-07-30 18:57:00,
2013-07-30 15:02:00,76.3,55.8,30.08,WNW,289,4.0,7.0,49,0.00,,,0.00,meteohub,2013-07-30 19:02:00,
2013-07-30 15:07:00,75.7,56.3,30.08,WNW,297,6.0,9.0,51,0.00,,,0.00,meteohub,2013-07-30 19:07:00,
2013-07-30 15:12:00,75.6,57.7,30.07,West,266,2.0,9.0,54,0.00,,,0.00,meteohub,2013-07-30 19:12:00,
2013-07-30 15:17:00,74.8,55.0,30.07,West,264,6.0,13.0,50,0.00,,,0.00,meteohub,2013-07-30 19:17:00,
2013-07-30 15:22:00,74.7,56.5,30.07,WSW,257,4.0,13.0,53,0.00,,,0.00,meteohub,2013-07-30 19:22:00,
2013-07-30 15:27:00,74.7,56.8,30.07,West,260,5.0,13.0,54,0.00,,,0.00,meteohub,2013-07-30 19:27:00,
2013-07-30 15:32:00,74.7,56.8,30.07,West,278,1.0,10.0,54,0.00,,,0.00,meteohub,2013-07-30 19:32:00,
2013-07-30 15:37:00,74.8,56.1,30.07,West,281,1.0,7.0,52,0.00,,,0.00,meteohub,2013-07-30 19:37:00,
2013-07-30 15:42:00,74.8,56.5,30.07,WSW,256,6.0,9.0,53,0.00,,,0.00,meteohub,2013-07-30 19:42:00,
2013-07-30 15:47:00,74.5,54.7,30.07,WNW,291,8.0,10.0,50,0.00,,,0.00,meteohub,2013-07-30 19:47:00,
2013-07-30 15:52:00,73.8,55.0,30.07,NW,306,5.0,11.0,52,0.00,,,0.00,meteohub,2013-07-30 19:52:00,
2013-07-30 15:53:00,73.8,55.6,30.07,WNW,287,4.0,11.0,53,0.00,,,0.00,meteohub,2013-07-30 19:53:00,
2013-07-30 15:58:00,73.6,55.4,30.07,WNW,299,9.0,11.0,53,0.00,,,0.00,meteohub,2013-07-30 19:58:00,
2013-07-30 16:03:00,73.9,55.8,30.07,West,277,9.0,11.0,53,0.00,,,0.00,meteohub,2013-07-30 20:03:00,
2013-07-30 16:08:00,74.5,57.7,30.07,WNW,295,5.0,11.0,56,0.00,,,0.00,meteohub,2013-07-30 20:08:00,
2013-07-30 16:13:00,75.4,58.1,30.07,West,259,4.0,11.0,55,0.00,,,0.00,meteohub,2013-07-30 20:13:00,
2013-07-30 16:18:00,75.6,56.7,30.06,West,273,4.0,10.0,52,0.00,,,0.00,meteohub,2013-07-30 20:18:00,
2013-07-30 16:23:00,75.9,59.2,30.07,WNW,282,2.0,11.0,56,0.00,,,0.00,meteohub,2013-07-30 20:23:00,
2013-07-30 16:28:00,75.9,59.2,30.06,West,280,6.0,11.0,56,0.00,,,0.00,meteohub,2013-07-30 20:28:00,
2013-07-30 16:33:00,76.3,57.4,30.06,WNW,287,14.0,14.0,52,0.00,,,0.00,meteohub,2013-07-30 20:33:00,
2013-07-30 16:38:00,75.7,57.4,30.06,WNW,287,2.0,14.0,53,0.00,,,0.00,meteohub,2013-07-30 20:38:00,
2013-07-30 16:43:00,75.7,56.8,30.06,West,278,5.0,14.0,52,0.00,,,0.00,meteohub,2013-07-30 20:43:00,
2013-07-30 16:48:00,75.6,57.2,30.06,WSW,245,2.0,14.0,53,0.00,,,0.00,meteohub,2013-07-30 20:48:00,
2013-07-30 16:53:00,75.7,57.4,30.06,WNW,287,8.0,13.0,53,0.00,,,0.00,meteohub,2013-07-30 20:53:00,
2013-07-30 16:58:00,75.6,57.7,30.06,West,281,6.0,13.0,54,0.00,,,0.00,meteohub,2013-07-30 20:58:00,
2013-07-30 17:03:00,75.4,59.5,30.06,WNW,293,5.0,12.0,58,0.00,,,0.00,meteohub,2013-07-30 21:03:00,
2013-07-30 17:08:00,75.4,58.1,30.06,West,263,2.0,12.0,55,0.00,,,0.00,meteohub,2013-07-30 21:08:00,
2013-07-30 17:13:00,75.4,58.1,30.06,West,273,2.0,12.0,55,0.00,,,0.00,meteohub,2013-07-30 21:13:00,
2013-07-30 17:18:00,75.0,57.2,30.06,WNW,289,6.0,10.0,54,0.00,,,0.00,meteohub,2013-07-30 21:18:00,
2013-07-30 17:23:00,74.8,58.1,30.06,West,273,4.0,10.0,56,0.00,,,0.00,meteohub,2013-07-30 21:23:00,
2013-07-30 17:28:00,75.4,57.0,30.06,WNW,290,10.0,12.0,53,0.00,,,0.00,meteohub,2013-07-30 21:28:00,
2013-07-30 17:33:00,75.7,58.5,30.06,West,279,7.0,12.0,55,0.00,,,0.00,meteohub,2013-07-30 21:33:00,
2013-07-30 17:38:00,75.9,56.5,30.06,West,268,6.0,12.0,51,0.00,,,0.00,meteohub,2013-07-30 21:38:00,
2013-07-30 17:40:00,75.9,57.6,30.06,West,261,9.0,12.0,53,0.00,,,0.00,meteohub,2013-07-30 21:40:00,
2013-07-30 17:45:00,75.4,57.0,30.06,WNW,283,8.0,14.0,53,0.00,,,0.00,meteohub,2013-07-30 21:45:00,
2013-07-30 17:50:00,75.0,58.3,30.06,WNW,289,6.0,14.0,56,0.00,,,0.00,meteohub,2013-07-30 21:50:00,
2013-07-30 17:55:00,75.0,58.3,30.06,West,272,1.0,13.0,56,0.00,,,0.00,meteohub,2013-07-30 21:55:00,
2013-07-30 18:00:00,75.4,59.0,30.05,West,262,5.0,13.0,57,0.00,,,0.00,meteohub,2013-07-30 22:00:00,
2013-07-30 18:05:00,75.6,57.7,30.05,West,276,7.0,12.0,54,0.00,,,0.00,meteohub,2013-07-30 22:05:00,
2013-07-30 18:10:00,75.4,58.6,30.05,WNW,289,6.0,8.0,56,0.00,,,0.00,meteohub,2013-07-30 22:10:00,
2013-07-30 18:15:00,74.8,59.0,30.05,West,268,2.0,11.0,58,0.00,,,0.00,meteohub,2013-07-30 22:15:00,
2013-07-30 18:20:00,74.7,57.4,30.05,West,275,2.0,11.0,55,0.00,,,0.00,meteohub,2013-07-30 22:20:00,
2013-07-30 18:25:00,73.9,57.2,30.05,WSW,250,4.0,10.0,56,0.00,,,0.00,meteohub,2013-07-30 22:25:00,
2013-07-30 18:30:00,73.0,56.5,30.05,West,278,6.0,10.0,56,0.00,,,0.00,meteohub,2013-07-30 22:30:00,
2013-07-30 18:35:00,72.7,57.6,30.05,West,281,4.0,8.0,59,0.00,,,0.00,meteohub,2013-07-30 22:35:00,
2013-07-30 18:40:00,72.3,56.3,30.05,WNW,287,4.0,9.0,57,0.00,,,0.00,meteohub,2013-07-30 22:40:00,
2013-07-30 18:45:00,72.1,56.5,30.05,WNW,283,4.0,10.0,58,0.00,,,0.00,meteohub,2013-07-30 22:45:00,
2013-07-30 18:50:00,72.1,57.0,30.05,West,268,4.0,10.0,59,0.00,,,0.00,meteohub,2013-07-30 22:50:00,
2013-07-30 18:55:00,72.0,57.4,30.05,WNW,287,2.0,10.0,60,0.00,,,0.00,meteohub,2013-07-30 22:55:00,
2013-07-30 19:00:00,71.8,57.2,30.05,WNW,288,1.0,6.0,60,0.00,,,0.00,meteohub,2013-07-30 23:00:00,
2013-07-30 19:05:00,71.6,57.0,30.05,West,270,2.0,4.0,60,0.00,,,0.00,meteohub,2013-07-30 23:05:00,
2013-07-30 19:10:00,71.4,57.2,30.05,WNW,287,1.0,5.0,61,0.00,,,0.00,meteohub,2013-07-30 23:10:00,
2013-07-30 19:15:00,71.4,57.2,30.05,WNW,287,1.0,5.0,61,0.00,,,0.00,meteohub,2013-07-30 23:15:00,
2013-07-30 19:20:00,71.2,57.6,30.04,WNW,287,1.0,5.0,62,0.00,,,0.00,meteohub,2013-07-30 23:20:00,
2013-07-30 19:25:00,71.2,57.6,30.04,WNW,287,0.0,4.0,62,0.00,,,0.00,meteohub,2013-07-30 23:25:00,
2013-07-30 19:30:00,71.2,57.9,30.04,WNW,287,0.0,2.0,63,0.00,,,0.00,meteohub,2013-07-30 23:30:00,
2013-07-30 19:35:00,71.2,58.5,30.04,WNW,287,1.0,2.0,64,0.00,,,0.00,meteohub,2013-07-30 23:35:00,
2013-07-30 19:40:00,71.1,59.5,30.04,NE,37,2.0,2.0,67,0.00,,,0.00,meteohub,2013-07-30 23:40:00,
2013-07-30 19:45:00,70.9,61.3,30.04,NE,56,1.0,4.0,72,0.00,,,0.00,meteohub,2013-07-30 23:45:00,
2013-07-30 19:50:00,70.5,63.0,30.04,ENE,58,1.0,4.0,77,0.00,,,0.00,meteohub,2013-07-30 23:50:00,
2013-07-30 19:55:00,70.0,63.9,30.04,NE,44,1.0,3.0,81,0.00,,,0.00,meteohub,2013-07-30 23:55:00,
2013-07-30 20:00:00,69.4,64.0,30.04,NE,46,1.0,3.0,83,0.00,,,0.00,meteohub,2013-07-31 00:00:00,
2013-07-30 20:05:00,69.1,64.4,30.04,NE,41,1.0,3.0,85,0.00,,,0.00,meteohub,2013-07-31 00:05:00,
2013-07-30 20:10:00,68.7,64.4,30.04,NE,48,2.0,6.0,86,0.00,,,0.00,meteohub,2013-07-31 00:10:00,
2013-07-30 20:15:00,68.5,64.6,30.04,ENE,73,1.0,6.0,87,0.00,,,0.00,meteohub,2013-07-31 00:15:00,
2013-07-30 20:20:00,68.2,64.4,30.04,NE,52,1.0,6.0,88,0.00,,,0.00,meteohub,2013-07-31 00:20:00,
2013-07-30 20:25:00,67.8,64.2,30.04,NE,48,3.0,5.0,88,0.00,,,0.00,meteohub,2013-07-31 00:25:00,
2013-07-30 20:30:00,67.5,64.4,30.04,ENE,71,1.0,5.0,90,0.00,,,0.00,meteohub,2013-07-31 00:30:00,
2013-07-30 20:35:00,67.3,64.2,30.04,ENE,78,1.0,4.0,90,0.00,,,0.00,meteohub,2013-07-31 00:35:00,
2013-07-30 20:40:00,66.9,64.2,30.04,NE,50,2.0,4.0,91,0.00,,,0.00,meteohub,2013-07-31 00:40:00,
2013-07-30 20:45:00,66.7,64.0,30.04,SE,125,3.0,4.0,91,0.00,,,0.00,meteohub,2013-07-31 00:45:00,
2013-07-30 20:50:00,66.6,64.2,30.04,NE,53,2.0,5.0,92,0.00,,,0.00,meteohub,2013-07-31 00:50:00,
2013-07-30 20:55:00,66.6,64.2,30.04,NE,50,3.0,5.0,92,0.00,,,0.00,meteohub,2013-07-31 00:55:00,
2013-07-30 21:00:00,66.4,64.0,30.04,East,89,1.0,5.0,92,0.00,,,0.00,meteohub,2013-07-31 01:00:00,
2013-07-30 21:05:00,66.4,64.0,30.04,ESE,120,2.0,5.0,92,0.00,,,0.00,meteohub,2013-07-31 01:05:00,
2013-07-30 21:10:00,66.2,63.9,30.05,ESE,106,1.0,6.0,92,0.00,,,0.00,meteohub,2013-07-31 01:10:00,
2013-07-30 21:16:00,66.2,63.9,30.05,ENE,70,1.0,6.0,92,0.00,,,0.00,meteohub,2013-07-31 01:16:00,
2013-07-30 21:21:00,66.0,63.9,30.05,ESE,115,2.0,6.0,93,0.00,,,0.00,meteohub,2013-07-31 01:21:00,
2013-07-30 21:26:00,65.8,63.7,30.05,ESE,104,1.0,5.0,93,0.00,,,0.00,meteohub,2013-07-31 01:26:00,
2013-07-30 21:31:00,65.8,63.7,30.06,East,85,2.0,4.0,93,0.00,,,0.00,meteohub,2013-07-31 01:31:00,
2013-07-30 21:36:00,65.8,63.7,30.06,NE,56,3.0,4.0,93,0.00,,,0.00,meteohub,2013-07-31 01:36:00,
2013-07-30 21:41:00,65.8,63.7,30.06,NE,48,1.0,5.0,93,0.00,,,0.00,meteohub,2013-07-31 01:41:00,
2013-07-30 21:46:00,65.8,63.7,30.06,ENE,60,1.0,5.0,93,0.00,,,0.00,meteohub,2013-07-31 01:46:00,
2013-07-30 21:51:00,65.7,63.5,30.06,NE,53,2.0,3.0,93,0.00,,,0.00,meteohub,2013-07-31 01:51:00,
2013-07-30 21:56:00,65.7,63.5,30.06,ENE,74,1.0,5.0,93,0.00,,,0.00,meteohub,2013-07-31 01:56:00,
2013-07-30 22:01:00,65.7,63.5,30.06,NE,53,2.0,5.0,93,0.00,,,0.00,meteohub,2013-07-31 02:01:00,
2013-07-30 22:07:00,65.7,63.5,30.06,SE,125,2.0,5.0,93,0.00,,,0.00,meteohub,2013-07-31 02:07:00,
2013-07-30 22:12:00,65.5,63.7,30.06,East,88,2.0,5.0,94,0.00,,,0.00,meteohub,2013-07-31 02:12:00,
2013-07-30 22:17:00,65.5,63.7,30.06,East,93,0.0,5.0,94,0.00,,,0.00,meteohub,2013-07-31 02:17:00,
2013-07-30 22:22:00,65.3,63.5,30.06,ENE,66,2.0,4.0,94,0.00,,,0.00,meteohub,2013-07-31 02:22:00,
2013-07-30 22:27:00,65.1,63.3,30.06,ENE,66,1.0,4.0,94,0.00,,,0.00,meteohub,2013-07-31 02:27:00,
2013-07-30 22:32:00,65.1,63.3,30.06,East,81,1.0,3.0,94,0.00,,,0.00,meteohub,2013-07-31 02:32:00,
2013-07-30 22:37:00,65.1,63.3,30.06,East,80,1.0,3.0,94,0.00,,,0.00,meteohub,2013-07-31 02:37:00,
2013-07-30 22:42:00,65.1,63.3,30.06,East,93,0.0,2.0,94,0.00,,,0.00,meteohub,2013-07-31 02:42:00,
2013-07-30 22:47:00,65.1,63.3,30.06,East,93,0.0,3.0,94,0.00,,,0.00,meteohub,2013-07-31 02:47:00,
2013-07-30 22:52:00,64.9,63.1,30.06,East,93,0.0,3.0,94,0.00,,,0.00,meteohub,2013-07-31 02:52:00,
2013-07-30 22:57:00,64.9,63.1,30.06,East,98,1.0,1.0,94,0.00,,,0.00,meteohub,2013-07-31 02:57:00,
2013-07-30 23:02:00,64.9,63.5,30.06,East,79,0.0,3.0,95,0.00,,,0.00,meteohub,2013-07-31 03:02:00,
2013-07-30 23:07:00,64.9,63.5,30.06,East,100,0.0,3.0,95,0.00,,,0.00,meteohub,2013-07-31 03:07:00,
2013-07-30 23:12:00,64.9,63.5,30.06,East,101,2.0,3.0,95,0.00,,,0.00,meteohub,2013-07-31 03:12:00,
2013-07-30 23:17:00,64.9,63.5,30.06,ESE,107,2.0,3.0,95,0.00,,,0.00,meteohub,2013-07-31 03:17:00,
2013-07-30 23:22:00,64.9,63.5,30.06,East,91,2.0,3.0,95,0.00,,,0.00,meteohub,2013-07-31 03:22:00,
2013-07-30 23:28:00,64.9,63.5,30.06,SSE,147,0.0,3.0,95,0.00,,,0.00,meteohub,2013-07-31 03:28:00,
2013-07-30 23:33:00,64.9,63.5,30.06,SSE,148,0.0,3.0,95,0.00,,,0.00,meteohub,2013-07-31 03:33:00,
2013-07-30 23:38:00,64.9,63.5,30.06,SE,140,1.0,3.0,95,0.00,,,0.00,meteohub,2013-07-31 03:38:00,
2013-07-30 23:43:00,64.9,63.5,30.06,ESE,120,0.0,3.0,95,0.00,,,0.00,meteohub,2013-07-31 03:43:00,
2013-07-30 23:48:00,64.9,63.5,30.06,ESE,108,0.0,3.0,95,0.00,,,0.00,meteohub,2013-07-31 03:48:00,
2013-07-30 23:53:00,64.9,63.5,30.06,ENE,73,2.0,3.0,95,0.00,,,0.00,meteohub,2013-07-31 03:53:00,
2013-07-30 23:58:00,64.9,63.5,30.06,East,101,0.0,2.0,95,0.00,,,0.00,meteohub,2013-07-31 03:58:00,